This is the latest recevied weather packets stored in our database for station/object KE8WMS. If no packets are shown the sender has not sent any weather packets the latest 10 day(s).
| Time | Temp. | Humidity | Pressure | Rain* | Wind** | Luminosity | Snow |
|---|---|---|---|---|---|---|---|
| 1788118304 | 22.78° C | 87% | 1013.9 hPa | 0 mm | - | 180 W/m² | - |
| 1788118000 | 22.78° C | 89% | 1013.9 hPa | 0 mm | - | 166 W/m² | - |
| 1788117695 | 22.78° C | 88% | 1014.2 hPa | 0 mm | - | 160 W/m² | - |
| 1788117391 | 22.78° C | 89% | 1014.2 hPa | 0 mm | - | 160 W/m² | - |
| 1788117086 | 22.78° C | 90% | 1014.3 hPa | 0 mm | - | 160 W/m² | - |
| 1788116782 | 22.22° C | 90% | 1014.5 hPa | 0 mm | - | 153 W/m² | - |
| 1788116476 | 22.22° C | 91% | 1014.6 hPa | 0 mm | - | 144 W/m² | - |
| 1788116175 | 22.22° C | 92% | 1014.6 hPa | 0 mm | - | 137 W/m² | - |
| 1788115871 | 22.22° C | 92% | 1015.3 hPa | 0 mm | - | 134 W/m² | - |
| 1788115570 | 22.22° C | 91% | 1015.7 hPa | 0 mm | - | 140 W/m² | - |
| 1788115270 | 22.78° C | 90% | 1015.5 hPa | 0 mm | - | 130 W/m² | - |
| 1788114965 | 22.22° C | 89% | 1015.7 hPa | 0 mm | - | 122 W/m² | - |
| 1788114661 | 22.78° C | 91% | 1015.6 hPa | 0 mm | - | 101 W/m² | - |
| 1788114355 | 22.22° C | 90% | 1015.8 hPa | 0 mm | - | 91 W/m² | - |
| 1788114052 | 22.78° C | 90% | 1015.9 hPa | 0 mm | - | 100 W/m² | - |
| 1788113748 | 22.78° C | 88% | 1015.9 hPa | 0 mm | - | 127 W/m² | - |
| 1788113447 | 22.78° C | 86% | 1016.1 hPa | 0 mm | - | 133 W/m² | - |
| 1788113147 | 23.33° C | 85% | 1016.2 hPa | 0 mm | - | 133 W/m² | - |
| 1788112846 | 23.33° C | 84% | 1016.2 hPa | 0 mm | - | 146 W/m² | - |
| 1788112545 | 23.33° C | 84% | 1016.1 hPa | 0 mm | - | 182 W/m² | - |
| 1788112241 | 22.78° C | 84% | 1016.4 hPa | 0 mm | - | 185 W/m² | - |
| 1788111936 | 23.33° C | 84% | 1016.2 hPa | 0 mm | - | 228 W/m² | - |
| 1788111631 | 23.33° C | 84% | 1016.1 hPa | 0 mm | - | 297 W/m² | - |
| 1788111327 | 23.33° C | 84% | 1016.2 hPa | 0 mm | - | 324 W/m² | - |
| 1788111021 | 23.33° C | 87% | 1016.3 hPa | 0 mm | - | 425 W/m² | - |
* Rain latest hour (hover to see other rain measurements)
** Current wind speed in m/s (hover to see current wind gust speed)